• In United Kingdom
  • List of Countries
  • For 7 days
  • Water Temperature
  • Satellite Maps
  • Weather Map
  • Weather Widgets
  • user-avatar
    Login

    Hourly Weather Solden

    Today, 18 October, Thursday

    Time Temperature Precipitation Wind Pressure Humidity
    00:00 +3°C° 0 mm 1 mps 583 mmHg 84%
    01:00 +2°C° 0 mm 1 mps 583 mmHg 85%
    02:00 +2°C° 0 mm 1 mps 583 mmHg 84%
    03:00 +2°C° 0 mm 1 mps 582 mmHg 84%
    04:00 +2°C° 0 mm 1 mps 582 mmHg 84%
    05:00 +2°C° 0 mm 1 mps 582 mmHg 83%
    06:00 +2°C° 0 mm 1 mps 582 mmHg 82%
    07:00 +2°C° 0 mm 1 mps 582 mmHg 81%
    08:00 +4°C° 0 mm 1 mps 583 mmHg 71%
    09:00 +7°C° 0 mm 1 mps 585 mmHg 62%
    10:00 +9°C° 0 mm 1 mps 586 mmHg 53%
    11:00 +10°C° 0 mm 1 mps 586 mmHg 50%
    12:00 +11°C° 0 mm 1 mps 586 mmHg 48%
    13:00 +12°C° 0 mm 1 mps 587 mmHg 45%
    14:00 +11°C° 0 mm 1 mps 586 mmHg 48%
    15:00 +11°C° 0 mm 1 mps 586 mmHg 52%
    16:00 +10°C° 0 mm 1 mps 585 mmHg 55%
    17:00 +8°C° 0 mm 1 mps 584 mmHg 64%
    18:00 +6°C° 0 mm 1 mps 584 mmHg 73%
    19:00 +2°C° 0 mm 0 mps 583 mmHg 83%
    20:00 +3°C° 0 mm 1 mps 583 mmHg 83%
    21:00 +3°C° 0 mm 1 mps 583 mmHg 84%
    22:00 +3°C° 0 mm 1 mps 583 mmHg 85%
    23:00 +2°C° 0 mm 1 mps 583 mmHg 85%

    Tomorrow, 19 October, Friday

    Time Temperature Precipitation Wind Pressure Humidity
    00:00 +2°C° 0 mm 1 mps 583 mmHg 85%
    01:00 +2°C° 0 mm 1 mps 583 mmHg 85%
    02:00 +2°C° 0 mm 1 mps 583 mmHg 85%
    03:00 +2°C° 0 mm 1 mps 583 mmHg 84%
    04:00 +2°C° 0 mm 1 mps 583 mmHg 84%
    05:00 +2°C° 0 mm 1 mps 583 mmHg 84%
    06:00 +2°C° 0 mm 1 mps 583 mmHg 83%
    07:00 +2°C° 0 mm 1 mps 583 mmHg 83%
    08:00 +4°C° 0 mm 1 mps 585 mmHg 72%
    09:00 +7°C° 0 mm 1 mps 586 mmHg 61%
    10:00 +10°C° 0 mm 1 mps 588 mmHg 49%
    11:00 +11°C° 0 mm 1 mps 588 mmHg 46%
    12:00 +11°C° 0 mm 1 mps 588 mmHg 42%
    13:00 +12°C° 0 mm 1 mps 589 mmHg 38%
    14:00 +12°C° 0 mm 1 mps 588 mmHg 42%
    15:00 +11°C° 0 mm 1 mps 588 mmHg 46%
    16:00 +10°C° 0 mm 1 mps 588 mmHg 50%
    17:00 +8°C° 0 mm 1 mps 587 mmHg 60%
    18:00 +6°C° 0 mm 1 mps 586 mmHg 71%
    19:00 +3°C° 0 mm 1 mps 585 mmHg 81%
    20:00 +3°C° 0 mm 1 mps 585 mmHg 82%
    21:00 +2°C° 0 mm 1 mps 585 mmHg 82%
    22:00 +2°C° 0 mm 1 mps 585 mmHg 83%
    23:00 +2°C° 0 mm 1 mps 586 mmHg 83%

    Day after tomorrow, 20 October, Saturday

    Time Temperature Precipitation Wind Pressure Humidity
    00:00 +2°C° 0 mm 1 mps 586 mmHg 83%
    01:00 +2°C° 0 mm 1 mps 586 mmHg 82%
    02:00 +2°C° 0 mm 1 mps 586 mmHg 82%
    03:00 +1°C° 0 mm 1 mps 586 mmHg 81%
    04:00 +1°C° 0 mm 1 mps 586 mmHg 81%
    05:00 +1°C° 0 mm 1 mps 586 mmHg 79%
    06:00 +1°C° 0 mm 1 mps 586 mmHg 77%
    07:00 +1°C° 0 mm 1 mps 586 mmHg 75%
    08:00 +4°C° 0 mm 1 mps 588 mmHg 64%
    09:00 +6°C° 0 mm 1 mps 589 mmHg 53%
    10:00 +9°C° 0 mm 1 mps 590 mmHg 41%
    11:00 +10°C° 0 mm 1 mps 591 mmHg 38%
    12:00 +11°C° 0 mm 1 mps 591 mmHg 35%
    13:00 +10°C° 0 mm 2 mps 591 mmHg 32%
    14:00 +10°C° 0 mm 2 mps 591 mmHg 36%
    15:00 +9°C° 0 mm 2 mps 590 mmHg 41%
    16:00 +8°C° 0 mm 2 mps 590 mmHg 46%
    17:00 +7°C° 0 mm 1 mps 589 mmHg 56%
    18:00 +4°C° 0 mm 1 mps 588 mmHg 66%
    19:00 +2°C° 0 mm 1 mps 587 mmHg 76%
    20:00 +2°C° 0 mm 1 mps 587 mmHg 77%
    21:00 +1°C° 0 mm 1 mps 587 mmHg 78%
    22:00 +1°C° 0 mm 1 mps 587 mmHg 79%
    23:00 +1°C° 0 mm 1 mps 587 mmHg 77%

    21 October, Sunday

    Time Temperature Precipitation Wind Pressure Humidity
    00:00 0°C° 0 mm 1 mps 587 mmHg 74%
    01:00 0°C° 0 mm 1 mps 587 mmHg 72%
    02:00 0°C° 0 mm 1 mps 587 mmHg 69%
    03:00 0°C° 0 mm 1 mps 587 mmHg 66%
    04:00 0°C° 0 mm 1 mps 587 mmHg 62%
    05:00 0°C° 0 mm 1 mps 587 mmHg 60%
    06:00 0°C° 0 mm 1 mps 587 mmHg 58%
    07:00 0°C° 0 mm 1 mps 587 mmHg 57%
    08:00 +3°C° 0 mm 1 mps 588 mmHg 48%
    09:00 +6°C° 0 mm 1 mps 590 mmHg 38%
    10:00 +8°C° 0 mm 0 mps 591 mmHg 29%
    11:00 +10°C° 0 mm 1 mps 591 mmHg 27%
    12:00 +11°C° 0 mm 1 mps 591 mmHg 25%
    13:00 +12°C° 0 mm 1 mps 592 mmHg 23%
    14:00 +11°C° 0 mm 1 mps 591 mmHg 29%
    15:00 +10°C° 0 mm 1 mps 590 mmHg 35%
    16:00 +9°C° 0 mm 1 mps 590 mmHg 40%
    17:00 +7°C° 0 mm 1 mps 589 mmHg 48%
    18:00 +4°C° 0 mm 1 mps 588 mmHg 55%
    19:00 +2°C° 0 mm 1 mps 587 mmHg 62%
    20:00 +2°C° 0 mm 1 mps 587 mmHg 59%
    21:00 +2°C° 0 mm 1 mps 587 mmHg 56%
    22:00 +1°C° 0 mm 1 mps 587 mmHg 53%
    23:00 +1°C° 0 mm 1 mps 587 mmHg 50%

    22 October, Monday

    Time Temperature Precipitation Wind Pressure Humidity
    00:00 +1°C° 0 mm 1 mps 586 mmHg 47%
    01:00 +1°C° 0 mm 1 mps 586 mmHg 44%
    02:00 +1°C° 0 mm 1 mps 586 mmHg 42%
    03:00 +1°C° 0 mm 1 mps 586 mmHg 40%
    04:00 -1°C° 0 mm 2 mps 586 mmHg 39%
    05:00 -1°C° 0 mm 2 mps 586 mmHg 39%
    06:00 +1°C° 0 mm 2 mps 586 mmHg 40%
    07:00 +1°C° 0 mm 2 mps 586 mmHg 41%
    08:00 +3°C° 0 mm 2 mps 587 mmHg 38%
    09:00 +6°C° 0 mm 2 mps 589 mmHg 35%
    10:00 +9°C° 0 mm 2 mps 590 mmHg 32%
    11:00 +9°C° 0 mm 2 mps 590 mmHg 33%
    12:00 +10°C° 0 mm 2 mps 590 mmHg 33%
    13:00 +12°C° 0 mm 2 mps 590 mmHg 33%
    14:00 +10°C° 0 mm 2 mps 590 mmHg 37%
    15:00 +9°C° 0 mm 2 mps 589 mmHg 41%
    16:00 +8°C° 0 mm 2 mps 589 mmHg 45%
    17:00 +6°C° 0 mm 2 mps 588 mmHg 54%
    18:00 +3°C° 0 mm 2 mps 587 mmHg 63%
    19:00 +1°C° 0 mm 2 mps 586 mmHg 71%
    20:00 +1°C° 0 mm 1 mps 586 mmHg 72%
    21:00 +1°C° 0 mm 1 mps 586 mmHg 74%
    22:00 0°C° 0 mm 1 mps 586 mmHg 75%
    23:00 0°C° 0 mm 1 mps 586 mmHg 74%

    23 October, Tuesday

    Time Temperature Precipitation Wind Pressure Humidity
    00:00 0°C° 0 mm 1 mps 585 mmHg 73%
    01:00 0°C° 0 mm 1 mps 585 mmHg 72%
    02:00 0°C° 0 mm 1 mps 585 mmHg 71%
    03:00 -1°C° 0 mm 1 mps 584 mmHg 70%
    04:00 -1°C° 0 mm 1 mps 584 mmHg 70%
    05:00 -1°C° 0 mm 1 mps 583 mmHg 71%
    06:00 -1°C° 0 mm 1 mps 583 mmHg 72%
    07:00 -3°C° 0 mm 2 mps 583 mmHg 73%
    08:00 -1°C° 0 mm 2 mps 583 mmHg 66%
    09:00 +2°C° 0 mm 2 mps 584 mmHg 59%
    10:00 +4°C° 0 mm 2 mps 585 mmHg 51%
    11:00 +5°C° 0.1 mm 2 mps 584 mmHg 51%
    12:00 +5°C° 0.1 mm 2 mps 584 mmHg 51%
    13:00 +5°C° 0.1 mm 2 mps 583 mmHg 51%
    14:00 +3°C° 0.4 mm 3 mps 583 mmHg 57%
    15:00 +2°C° 0.4 mm 3 mps 582 mmHg 64%
    16:00 0°C° 0.4 mm 3 mps 581 mmHg 71%
    17:00 -1°C° 0.4 mm 3 mps 580 mmHg 75%
    18:00 -2°C° 0.4 mm 3 mps 580 mmHg 78%
    19:00 -4°C° 0.4 mm 3 mps 579 mmHg 82%
    20:00 -5°C° 0.4 mm 3 mps 579 mmHg 82%
    21:00 -5°C° 0.4 mm 3 mps 579 mmHg 83%
    22:00 -6°C° 0.4 mm 3 mps 579 mmHg 83%
    23:00 -6°C° 0.2 mm 3 mps 579 mmHg 83%
    Show more